Date,TemperatureHighF,TemperatureAvgF,TemperatureLowF,DewpointHighF,DewpointAvgF,DewpointLowF,HumidityHigh,HumidityAvg,HumidityLow,PressureMaxIn,PressureMinIn,WindSpeedMaxMPH,WindSpeedAvgMPH,GustSpeedMaxMPH,PrecipitationSumIn
2013-3-1,74.3,53.1,32.8,28.3,20.5,12.4,60,33,11,30.34,30.18,10,-5,10,0.00
2013-3-2,83.5,60.2,37.4,30.9,25.7,5.0,69,34,6,30.30,30.06,10,2,10,0.00
2013-3-3,79.8,62.8,42.2,32.4,25.4,11.6,62,30,9,30.08,29.86,18,3,18,0.00
2013-3-4,72.3,63.0,47.8,33.1,29.2,18.2,54,29,16,30.01,29.81,27,5,27,0.00
2013-3-5,80.4,60.7,42.7,34.0,30.3,22.4,65,37,13,30.08,29.92,16,2,16,0.00
2013-3-6,81.5,64.8,48.9,37.5,32.1,21.5,60,33,14,29.97,29.80,17,2,17,0.00
2013-3-7,80.3,62.8,44.9,33.3,27.4,14.9,57,31,9,29.91,29.80,23,3,23,0.00
2013-3-8,68.8,57.5,44.3,48.6,38.2,28.5,71,49,29,29.93,29.68,35,7,35,0.06
2013-3-9,52.9,47.2,42.9,39.4,36.3,32.6,80,66,53,30.09,29.93,18,4,18,0.01
2013-3-10,66.7,51.9,38.5,39.1,34.0,26.2,87,55,25,30.16,30.04,15,2,15,0.00
2013-3-11,73.3,54.7,36.1,33.6,31.1,27.4,75,45,20,30.17,29.98,13,2,13,0.00
2013-3-12,82.5,59.8,37.1,35.9,31.4,24.9,75,41,13,30.07,29.94,11,2,11,0.00
2013-3-13,89.2,66.9,42.6,36.6,29.0,18.4,69,32,8,30.09,29.93,18,3,18,0.00
2013-3-14,92.4,70.6,47.3,32.0,22.3,5.9,51,22,4,30.05,29.89,19,3,19,0.00
2013-3-15,94.0,71.0,48.6,29.5,23.5,-0.2,45,21,3,29.96,29.80,25,3,25,0.00
2013-3-16,89.2,70.4,48.2,30.7,22.1,4.1,45,20,5,29.85,29.62,24,4,24,0.00
2013-3-17,83.3,66.4,48.6,26.8,23.3,15.6,37,21,8,29.85,29.71,28,5,28,0.00
2013-3-18,81.8,65.9,49.9,36.4,26.6,15.2,46,26,9,29.94,29.83,19,3,19,0.00
2013-3-19,80.0,65.1,49.2,38.1,30.2,25.1,51,29,15,29.98,29.86,21,3,21,0.00
2013-3-20,82.7,65.9,48.4,34.7,30.5,24.8,52,29,13,29.99,29.80,16,-164,16,0.00
2013-3-21,76.8,65.2,50.8,37.0,32.7,28.0,50,31,19,29.80,29.65,17,2,17,0.00
2013-3-22,80.8,67.6,51.7,35.2,32.3,27.4,48,28,16,29.73,29.58,24,4,24,0.00
2013-3-23,74.8,61.5,46.9,34.4,21.7,-1.0,56,26,6,29.93,29.73,28,5,28,0.00
2013-3-24,76.8,59.1,39.1,15.5,8.1,-8.2,35,16,4,29.98,29.82,22,4,22,0.00
2013-3-25,80.7,62.3,40.9,20.0,16.0,10.5,37,19,8,29.97,29.83,17,3,17,0.00
2013-3-26,85.8,65.5,46.8,24.2,12.8,-99.9,39,17,5,29.93,29.75,18,3,18,0.00
2013-3-27,86.5,68.8,48.6,26.9,20.3,13.9,37,17,8,29.93,29.80,18,-315,18,0.00
2013-3-28,84.5,69.3,48.9,35.1,23.5,17.1,36,19,9,29.97,29.86,16,3,16,0.00
2013-3-29,86.5,70.2,51.2,37.4,23.7,14.4,36,19,8,30.01,29.89,19,2,19,0.00
2013-3-30,83.3,69.1,54.0,31.5,24.1,14.5,33,20,8,29.98,29.83,18,2,18,0.00
2013-3-31,86.0,67.7,48.1,33.4,28.2,23.8,49,26,12,29.98,29.82,17,2,17,0.00